FENGYUN 1C DEB, 32363

Orbit data source: Space-Track

FENGYUN 1C DEB, 32363 is space debris in SSO originally from a launch on Mon, 10 May 1999 UTC launched from the Taiyaun Space Center, China (TSC). Fengyun 1C debris stems from the Chinese weather satellite Fengyun-1C, which was intentionally destroyed by a Chinese anti-satellite missile in 2007. This event dramatically increased the amount of space debris, with thousands of trackable fragments posing hazards to satellites and human spaceflight. The Fengyun 1C debris cloud has become a focal point in discussions about space sustainability and the need for international regulations to prevent the creation of new debris.

Loading next visibility...
Identifier
32363, 1999-025CZG
Orbit
SSO
Country
Flag of CNCN / PRC
Related business
Manufacturer
Unknown
Mission
Spacecraft
Bus & Motor
Unknown
Mass
Unknown
Launch date (UTC)
1999-05-10 (26 years ago)
Launch vehicle
Unknown
Launch site
Taiyaun Space Center, China (TSC)
Object type
Payload
Rocket body
Debris
Shape & HBR
Unknown shape, 0.1 m
Radar Cross Section
Small (<0.1 m²)

Expand to show TLE details & history
Last TLE update: 22 hours ago

TLE from 22 hours ago
0 FENGYUN 1C DEB
1 32363U 99025CZG 25309.60626631  .00091712  00000-0  21323-2 0  9994
2 32363  98.3291 262.2388 0067392 276.7879  82.5699 15.39594562962358
Epoch: 2025-11-05T14:33Z
TLE epoch observation values (Epoch: 2025-11-05T14:33:01.409Z)
Latitude
0.00001°
Longitude
-1.0936°
Altitude
444.752 km
Speed
7.648 km/s
True Right ascension
17h 28m 57s
True Declination
0° 00' 00"
Sunlit
Object was in daylight at epoch
Visualization orbit readout
Latitude
Unknown
Longitude
Unknown
Altitude
Unknown
Speed
Unknown
Apparent Right ascension
Unknown
Apparent Declination
Unknown
Sunlit
N/A
Visualization observer readout
Local Sidereal Time
08:17:19
Azimuth
Unknown
Elevation
Unknown
Doppler factor
Unknown
Orbital elements
Apogee altitude
490.267 km
Perigee altitude
398.311 km
Semi-major axis
6,822.426 km
Eccentricity
0.00674
Inclination
98.3291°
RAAN
262.2388°
Arg. of periapsis
276.7879°
True anomaly
83.33648°
Mean anomaly
82.5699°
Eccentric anomaly
82.95311°
Mean motion
3.85154 °/min
Orbital period
93.47 mins
BSTAR
0.0021323
Loading maneuver chart data...
Computing Atmospheric mass density...

Documentation

Showing up to 5 results
|